User: anonymous   Login
Location: Chavannes
(47.1090°N, 0.2226°W)
Time: 23:55:34
(UTC+00:00)
Language:

Cosmos 1892 Rocket - Orbit

View from above orbital plane
View from above orbital plane
View from above satellite
View from above satellite

Ground track
Ground track

The orbit data is extracted from the following two-line orbital elements,

1 18422U 87088B   22026.71901168  .00000166  00000-0  17490-4 0  9991
2 18422  82.5101  38.1817 0018078 291.8970 119.6314 14.83121579851486
Epoch (UTC): 26 January 2022 17:15:22
Eccentricity: 0.0018078
inclination: 82.5101°
perigee height: 607 km
apogee height: 632 km
right ascension of ascending node: 38.1817°
argument of perigee: 291.8970°
revolutions per day: 14.83121579
mean anomaly at epoch: 119.6314°
orbit number at epoch: 85148

The dashed part of the orbit path shows where the satellite is in the earth's shadow,  

DLR